Stations météo

Publicité
Montauban, France (7540): Température de l'air & dewpoint: 21.05.2019 06:00:00 - 27.05.2019 06:00:00 (CEST)Montauban, France (7540): Température de l'air 5cm: 21.05.2019 06:00:00 - 27.05.2019 06:00:00 (CEST)Montauban, France (7540): Température de l'air -20cm & Température de l'air -100cm: 21.05.2019 06:00:00 - 27.05.2019 06:00:00 (CEST)Montauban, France (7540): Vitesse du vent & gusts: 21.05.2019 06:00:00 - 27.05.2019 06:00:00 (CEST)Montauban, France (7540): Direction du vent: 21.05.2019 06:00:00 - 27.05.2019 06:00:00 (CEST)Montauban, France (7540): reduced air pressure: 21.05.2019 06:00:00 - 27.05.2019 06:00:00 (CEST)Montauban, France (7540): visibility: 21.05.2019 06:00:00 - 27.05.2019 06:00:00 (CEST)Montauban, France (7540): Ensoleillement: 21.05.2019 06:00:00 - 27.05.2019 06:00:00 (CEST)Montauban, France (7540): Quantités de précipitations: 21.05.2019 06:00:00 - 27.05.2019 06:00:00 (CEST)
Date & Time tt [°C] td [°C] tt 5cm [°C] tt -20cm [°C] tt -100cm [°C] ff [km/h] ff [knt] fx [km/h] fx [knt] dd ppp [hPa] vv [km] sd [min] rr [mm]
27.05.2019 06:00:00 - - - - - - - - - - - - - -
27.05.2019 05:00:00 14,3 11,3 12,7 17,8 15,7 9 5 16 9 W 1017,2 20 0 0,0
27.05.2019 04:00:00 14,3 10,9 12,8 17,8 15,7 8 5 28 15 W 1017,7 20 0 0,0
27.05.2019 03:00:00 15,0 10,6 14,4 17,9 15,6 18 10 30 16 WNW 1018,1 20 0 0,0
27.05.2019 02:00:00 15,6 11,2 15,1 17,9 15,6 15 8 33 18 WNW 1018,4 20 0 0,0
27.05.2019 01:00:00 16,4 11,5 15,6 18,0 15,7 16 9 29 16 WNW 1018,5 20 0 0,0
27.05.2019 00:00:00 17,1 12,0 15,6 17,9 15,6 13 7 32 17 NW 1018,6 20 0 0,0
26.05.2019 23:00:00 18,3 12,1 17,2 17,9 15,6 16 9 30 16 WNW 1018,3 20 0 0,0
26.05.2019 22:00:00 18,8 12,1 17,4 17,9 15,6 12 7 23 12 WNW 1017,5 20 0 0,0
26.05.2019 21:00:00 19,8 12,1 18,3 17,8 15,6 12 7 24 13 WNW 1017,2 20 20 0,0
26.05.2019 20:00:00 21,2 11,8 20,6 17,7 15,6 13 7 30 16 WNW 1017,4 20 52 0,0
26.05.2019 19:00:00 21,7 10,5 20,1 17,6 15,6 18 10 31 17 NW 1017,6 20 18 0,0
26.05.2019 18:00:00 21,2 11,2 21,0 17,5 15,6 21 11 32 18 WNW 1018,1 20 29 0,0
26.05.2019 17:00:00 21,8 12,1 22,2 17,3 15,6 16 9 36 19 NW 1018,3 20 48 0,0
26.05.2019 16:00:00 21,5 12,6 23,0 17,3 15,6 19 10 32 17 NW 1018,9 20 45 0,0
26.05.2019 15:00:00 20,3 12,5 23,0 17,2 15,6 21 11 34 18 WNW 1019,4 20 51 0,0
26.05.2019 14:00:00 18,7 13,3 19,1 17,3 15,6 15 8 23 13 WNW 1020,5 20 6 0,0
26.05.2019 13:00:00 17,0 12,3 16,5 17,3 15,6 13 7 22 12 NW 1020,9 20 0 0,0
26.05.2019 12:00:00 15,6 11,8 15,5 17,3 15,6 14 7 24 13 NW 1021,4 20 0 0,0
26.05.2019 11:00:00 14,6 11,7 14,6 17,4 15,6 17 9 29 16 WNW 1021,4 19 0 0,0
26.05.2019 10:00:00 14,4 11,9 14,1 17,5 15,6 17 9 27 15 WNW 1021,3 20 0 0,0
26.05.2019 09:00:00 13,8 11,5 13,5 17,5 15,5 16 9 25 14 WNW 1021,2 20 0 0,0
26.05.2019 08:00:00 13,4 11,3 12,6 17,6 15,5 14 8 24 13 WNW 1021,2 20 0 0,0
26.05.2019 07:00:00 13,2 11,3 12,2 17,7 15,5 11 6 24 13 WNW 1021,2 20 0 0,0
26.05.2019 06:00:00 13,1 11,0 12,2 17,8 15,5 12 7 24 13 WNW 1020,9 20 0 0,0
26.05.2019 05:00:00 13,3 10,8 12,0 17,9 15,5 12 7 24 13 WNW 1021,2 20 0 0,0
26.05.2019 04:00:00 13,2 10,6 12,0 18,0 15,6 16 9 29 15 WNW 1021,3 20 0 0,4
26.05.2019 03:00:00 13,8 10,0 13,2 18,1 15,6 17 9 28 15 WNW 1021,4 20 0 0,0
26.05.2019 02:00:00 14,0 10,2 13,1 18,1 15,6 13 7 25 14 W 1021,7 20 0 0,0
26.05.2019 01:00:00 14,8 10,6 13,0 18,2 15,5 15 8 23 13 WNW 1022,0 20 0 0,0
26.05.2019 00:00:00 14,9 10,9 12,9 18,2 15,5 9 5 16 9 WNW 1022,0 20 0 0,0
25.05.2019 23:00:00 15,6 10,8 13,6 18,2 15,5 9 5 18 10 NW 1021,9 20 0 0,0
25.05.2019 22:00:00 16,5 10,6 14,9 18,2 15,5 12 6 27 14 WNW 1021,0 20 0 0,0
25.05.2019 21:00:00 17,8 10,7 16,7 18,1 15,5 13 7 34 19 NW 1020,5 20 3 0,0
25.05.2019 20:00:00 18,8 10,1 18,4 18,0 15,5 16 9 36 19 NW 1020,0 20 0 0,0
25.05.2019 19:00:00 19,8 10,5 19,8 17,9 15,5 18 10 43 23 NW 1019,5 20 30 0,0
25.05.2019 18:00:00 21,3 10,7 23,3 17,7 15,5 28 15 45 24 NW 1019,0 20 57 0,0
25.05.2019 17:00:00 21,9 9,4 24,5 17,5 15,5 25 14 41 22 NW 1018,7 20 58 0,0
25.05.2019 16:00:00 22,4 9,9 22,7 17,4 15,5 22 12 39 21 NW 1018,7 20 52 0,0
25.05.2019 15:00:00 22,4 11,5 23,1 17,3 15,5 19 10 37 20 NW 1019,0 20 56 0,0
25.05.2019 14:00:00 21,6 12,7 22,5 17,2 15,5 18 10 38 21 NW 1019,2 20 45 0,0
25.05.2019 13:00:00 20,9 12,6 24,1 17,1 15,5 19 10 37 20 NW 1019,6 20 55 0,0
25.05.2019 12:00:00 19,1 14,6 20,5 17,2 15,5 16 9 27 15 WNW 1019,9 20 46 0,0
25.05.2019 11:00:00 16,9 14,2 16,8 17,2 15,4 11 6 20 11 WNW 1020,1 19 0 0,0
25.05.2019 10:00:00 15,5 14,0 15,0 17,2 15,4 11 6 18 10 WNW 1019,8 12 0 0,0
25.05.2019 09:00:00 14,7 13,9 14,1 17,3 15,5 13 7 22 12 WNW 1019,4 8 0 0,0
25.05.2019 08:00:00 14,3 13,5 13,8 17,3 15,4 12 6 19 11 WNW 1019,0 7 0 0,0
25.05.2019 07:00:00 14,2 13,6 13,8 17,4 15,4 13 7 22 12 WNW 1018,5 7 0 0,0
25.05.2019 06:00:00 14,6 14,0 14,1 17,4 15,4 11 6 18 10 WNW 1018,3 6 0 0,0
25.05.2019 05:00:00 14,7 14,1 14,2 17,5 15,4 11 6 18 10 WNW 1017,8 9 0 0,2
25.05.2019 04:00:00 14,6 14,0 13,9 17,5 15,4 10 5 15 8 WNW 1018,2 6 0 0,2
25.05.2019 03:00:00 14,4 13,6 13,3 17,6 15,4 6 3 9 5 W 1018,3 18 0 0,2
25.05.2019 02:00:00 14,2 13,4 13,3 17,7 15,4 5 3 10 5 WNW 1018,7 16 0 0,6
25.05.2019 01:00:00 14,1 13,5 13,4 17,8 15,4 5 3 13 7 WNW 1018,9 15 0 0,7
25.05.2019 00:00:00 14,1 13,3 13,4 17,8 15,4 8 5 13 7 WNW 1018,7 15 0 1,8
24.05.2019 23:00:00 14,4 13,4 13,4 17,8 15,4 3 1 13 7 N 1018,7 10 0 3,4
24.05.2019 22:00:00 14,5 13,5 13,6 17,9 15,4 6 3 23 13 NNE 1018,3 7 0 8,4
24.05.2019 21:00:00 16,6 15,0 15,6 17,9 15,4 10 6 18 10 W 1017,0 15 0 0,2
24.05.2019 20:00:00 16,9 14,9 15,8 17,8 15,3 7 4 16 9 WSW 1016,7 20 0 0,0
24.05.2019 19:00:00 17,0 14,5 16,2 17,8 15,4 8 4 18 10 W 1016,9 17 0 0,2
24.05.2019 18:00:00 17,2 14,1 17,4 17,7 15,3 10 5 24 13 WNW 1017,0 20 0 0,0
24.05.2019 17:00:00 17,2 14,7 18,3 17,7 15,3 15 8 24 13 WNW 1016,8 20 0 0,0
24.05.2019 16:00:00 16,9 14,7 17,2 17,7 15,3 16 9 24 13 WNW 1017,4 19 0 0,0
24.05.2019 15:00:00 16,8 15,3 17,1 17,7 15,3 16 9 25 13 WNW 1017,6 20 0 0,2
24.05.2019 14:00:00 16,9 14,9 17,1 17,8 15,3 13 7 22 12 NW 1017,7 20 0 0,0
24.05.2019 13:00:00 16,3 14,7 16,1 17,8 15,3 11 6 20 11 NNW 1018,1 15 0 0,8
24.05.2019 12:00:00 15,7 14,9 15,3 17,9 15,3 10 5 17 9 NW 1018,3 7 0 1,4
24.05.2019 11:00:00 15,1 14,5 14,7 17,9 15,3 10 5 19 10 WNW 1018,3 7 0 1,8
24.05.2019 10:00:00 14,9 14,3 14,4 18,0 15,3 11 6 19 11 WNW 1018,2 10 0 2,2
24.05.2019 09:00:00 14,7 14,1 14,3 18,1 15,3 10 6 18 10 WNW 1018,0 10 0 2,5
24.05.2019 08:00:00 14,7 13,9 14,2 18,2 15,3 9 5 20 11 WNW 1017,7 9 0 2,6
24.05.2019 07:00:00 15,1 14,1 14,4 18,2 15,3 10 5 22 12 WNW 1017,5 9 0 1,2
24.05.2019 06:00:00 16,0 13,1 15,4 18,3 15,2 11 6 23 13 WNW 1017,2 20 0 0,0
24.05.2019 05:00:00 16,1 13,4 15,6 18,4 15,2 13 7 25 14 WNW 1017,1 20 0 0,0
24.05.2019 04:00:00 16,2 13,3 15,8 18,4 15,2 17 9 31 17 WNW 1017,1 19 0 0,0
24.05.2019 03:00:00 16,4 13,5 16,0 18,5 15,2 19 10 32 17 WNW 1017,2 18 0 0,0
24.05.2019 02:00:00 16,8 13,7 16,4 18,6 15,2 18 10 35 19 W 1017,4 19 0 0,0
24.05.2019 01:00:00 18,1 14,6 17,4 18,6 15,2 19 10 33 18 W 1017,5 20 0 0,0
24.05.2019 00:00:00 19,8 12,3 18,2 18,6 15,2 13 7 24 13 W 1016,8 20 0 0,0
23.05.2019 23:00:00 20,7 12,1 18,5 18,6 15,2 7 4 14 8 WNW 1016,6 20 0 0,0
23.05.2019 22:00:00 21,6 11,0 19,4 18,6 15,2 9 5 16 9 W 1016,2 20 0 0,0
23.05.2019 21:00:00 22,2 11,3 20,0 18,5 15,2 8 4 15 8 W 1015,6 20 0 0,0
23.05.2019 20:00:00 23,2 11,6 22,0 18,3 15,2 10 5 17 9 WNW 1015,3 20 0 0,0
23.05.2019 19:00:00 24,1 10,7 22,8 18,2 15,2 10 6 18 10 NW 1015,2 20 0 0,0
23.05.2019 18:00:00 25,0 9,7 25,0 17,9 15,1 9 5 22 12 WNW 1015,2 20 31 0,0
23.05.2019 17:00:00 25,8 9,2 28,8 17,7 15,2 7 4 24 13 NNW 1015,4 20 60 0,0
23.05.2019 16:00:00 26,1 8,1 30,9 17,4 15,1 10 6 23 13 NNW 1015,6 20 60 0,0
23.05.2019 15:00:00 26,0 9,8 31,5 17,2 15,1 8 4 19 10 NW 1016,0 20 60 0,0
23.05.2019 14:00:00 25,1 9,0 30,9 17,0 15,1 8 5 19 10 N 1016,4 18 60 0,0
23.05.2019 13:00:00 24,6 10,1 30,5 16,9 15,1 5 3 13 7 NNW 1016,8 20 60 0,0
23.05.2019 12:00:00 23,6 12,6 30,2 16,9 15,1 3 2 12 6 WSW 1017,4 19 60 0,0
23.05.2019 11:00:00 22,1 12,9 28,0 16,9 15,1 2 1 8 5 S 1017,4 19 60 0,0
23.05.2019 10:00:00 19,1 11,6 24,3 17,0 15,1 3 2 8 4 E 1018,0 20 60 0,0
23.05.2019 09:00:00 16,7 10,5 20,2 17,1 15,1 0 0 3 2 N 1018,0 20 60 0,0
23.05.2019 08:00:00 13,4 10,2 9,5 17,3 15,1 0 0 7 4 N 1017,8 20 60 0,0
23.05.2019 07:00:00 9,9 8,5 6,2 17,4 15,1 3 1 8 5 ESE 1017,6 19 9 0,0
23.05.2019 06:00:00 9,7 8,1 6,5 17,5 15,1 0 0 4 2 N 1017,5 19 0 0,0
23.05.2019 05:00:00 10,8 9,1 6,9 17,6 15,1 0 0 5 3 N 1017,3 20 0 0,0
23.05.2019 04:00:00 11,1 9,0 8,0 17,8 15,1 4 2 6 3 E 1017,4 20 0 0,0
23.05.2019 03:00:00 11,7 9,3 8,1 17,9 15,1 0 0 12 7 N 1017,5 20 0 0,0
23.05.2019 02:00:00 12,5 9,5 8,7 17,9 15,1 0 0 2 1 N 1017,7 20 0 0,0
23.05.2019 01:00:00 14,1 9,7 9,8 18,0 15,1 0 0 4 2 N 1017,7 20 0 0,0
23.05.2019 00:00:00 14,4 10,0 10,9 18,0 15,1 4 2 6 3 SSE 1017,8 20 0 0,0
22.05.2019 23:00:00 15,8 10,3 12,1 17,9 15,1 2 1 5 3 SSW 1018,1 20 0 0,0
22.05.2019 22:00:00 20,7 9,6 14,4 17,9 15,1 4 2 9 5 NNW 1017,5 20 0 0,0
22.05.2019 21:00:00 23,2 8,5 20,5 17,8 15,1 8 4 17 9 NNW 1017,1 20 56 0,0
22.05.2019 20:00:00 24,4 7,5 25,2 17,5 15,1 10 5 19 10 NNW 1016,8 20 60 0,0
22.05.2019 19:00:00 24,8 8,3 24,0 17,3 15,1 10 6 22 12 NW 1016,9 20 58 0,0
22.05.2019 18:00:00 24,4 8,8 25,0 17,0 15,1 9 5 33 18 N 1017,3 20 51 0,0
22.05.2019 17:00:00 24,9 11,1 25,6 16,8 15,1 8 4 19 11 NW 1017,5 20 56 0,0
22.05.2019 16:00:00 24,0 10,3 25,6 16,5 15,1 11 6 19 10 WNW 1018,0 20 49 0,0
22.05.2019 15:00:00 23,9 10,6 30,0 16,2 15,1 6 3 22 12 NNW 1018,3 20 60 0,0
22.05.2019 14:00:00 22,6 10,1 24,9 16,0 15,0 10 5 18 10 NNW 1018,7 20 56 0,0
22.05.2019 13:00:00 21,7 9,9 27,7 15,9 15,0 8 5 15 8 NW 1019,3 20 60 0,0
22.05.2019 12:00:00 21,2 12,1 27,1 15,9 15,0 4 2 11 6 WNW 1019,5 20 60 0,0
22.05.2019 11:00:00 19,7 12,0 24,3 15,9 15,0 2 1 8 5 ESE 1019,6 20 60 0,0
22.05.2019 10:00:00 17,5 11,3 22,5 16,0 15,0 3 1 6 4 E 1019,9 20 60 0,0
22.05.2019 09:00:00 14,5 11,3 17,1 16,1 15,1 2 1 6 3 SSE 1020,0 20 60 0,0
22.05.2019 08:00:00 11,9 10,3 8,2 16,2 15,1 0 0 4 2 N 1019,9 20 60 0,0
22.05.2019 07:00:00 8,8 7,9 5,9 16,3 15,1 3 2 6 3 E 1019,7 0,6 7 0,0
22.05.2019 06:00:00 9,4 8,2 5,4 16,4 15,1 0 0 3 2 N 1019,3 20 0 0,0
22.05.2019 05:00:00 9,6 8,2 6,7 16,5 15,1 2 1 8 4 SE 1019,2 15 0 0,0
22.05.2019 04:00:00 10,4 9,0 6,8 16,6 15,1 0 0 5 3 N 1019,3 20 0 0,0
22.05.2019 03:00:00 10,6 9,2 7,0 16,7 15,1 2 1 5 3 WSW 1019,4 20 0 0,0
22.05.2019 02:00:00 10,9 9,2 7,6 16,8 15,1 2 1 4 2 SSE 1019,3 20 0 0,0
22.05.2019 01:00:00 12,3 10,2 8,4 16,8 15,1 0 0 4 2 N 1019,2 19 0 0,0
22.05.2019 00:00:00 13,1 10,8 8,9 16,8 15,1 3 1 5 3 W 1019,1 20 0 0,0
21.05.2019 23:00:00 15,2 11,4 10,6 16,8 15,1 0 0 13 7 N 1019,2 20 0 0,0
21.05.2019 22:00:00 17,2 11,7 14,1 16,6 15,1 4 2 9 5 N 1018,8 20 0 0,0
21.05.2019 21:00:00 17,9 11,9 16,7 16,5 15,0 4 2 14 8 SE 1018,1 20 9 0,0
21.05.2019 20:00:00 18,3 10,6 18,3 16,4 15,1 10 6 27 15 NNE 1017,6 20 33 0,0
21.05.2019 19:00:00 21,0 9,9 23,0 16,2 15,1 12 7 27 15 NNW 1017,1 20 58 0,0
21.05.2019 18:00:00 20,7 10,5 24,6 16,0 15,1 14 8 29 15 NW 1017,1 20 60 0,0
21.05.2019 17:00:00 20,7 11,3 24,0 15,8 15,0 14 8 28 15 W 1017,4 20 58 0,0
21.05.2019 16:00:00 20,4 11,3 22,0 15,6 15,0 15 8 33 18 WNW 1017,7 20 54 0,0
21.05.2019 15:00:00 18,8 11,6 20,2 15,5 15,0 10 5 27 14 WNW 1017,9 20 22 0,0
21.05.2019 14:00:00 18,7 11,0 19,5 15,5 15,1 13 7 24 13 NW 1018,2 20 28 0,0
21.05.2019 13:00:00 17,4 11,0 19,3 15,4 15,0 7 4 18 10 NNW 1018,4 20 17 0,0
21.05.2019 12:00:00 15,4 11,8 16,1 15,5 15,1 9 5 16 9 WNW 1018,8 18 12 0,0
21.05.2019 11:00:00 12,6 11,3 13,5 15,6 15,1 3 2 13 7 N 1019,0 8 0 0,0
21.05.2019 10:00:00 11,4 10,8 11,9 15,6 15,0 9 5 14 8 WNW 1018,6 1,7 0 0,0
21.05.2019 09:00:00 10,7 10,2 11,3 15,7 15,1 9 5 14 8 NW 1018,3 0,7 5 0,0
21.05.2019 08:00:00 10,4 9,8 10,0 15,8 15,1 11 6 16 9 WNW 1017,9 1,0 2 0,0
21.05.2019 07:00:00 10,3 9,7 6,7 15,9 15,1 4 2 8 4 WNW 1017,4 7 0 0,2
21.05.2019 06:00:00 9,7 8,9 5,1 16,0 15,1 3 2 6 3 W 1017,0 12 0 0,0

tt = Température de l'air
td = dewpoint
tt 5cm = Température de l'air 5cm
tt -20cm = Température de l'air -20cm
tt -100cm = Température de l'air -100cm
ff = Vitesse du vent
fx = gusts
dd = Direction du vent
ppp = reduced air pressure
vv = visibility
sd = Ensoleillement
rr = Quantités de précipitations

stations d'obs. à proximité